Location: Eastlake (historical)
(39.0077°N, 122.6678°W)
Time: 18:28:00
(UTC+00:00)

Cosmos 773 Rocket - Pass Details

Date: 25 November 2020
Orbit: 746 x 776 km, 74.1° (Epoch: 22 January)

Event Time Altitude Azimuth Distance (km) Brightness Sun altitude
Exits shadow 12:44:17 65° 8° (N) 847 4.1 -27.0°
Maximum altitude 12:45:00 78° 71° (ENE) 792 4.0 -26.8°
Drops below altitude 10° 12:50:14 10° 158° (SSE) 2,301 6.8 -25.8°
Sets 12:52:35 0° 160° (SSE) 3,219 7.6 -25.4°
